Simultaneous Nadir Overpasses (SNOs) Predictions

Prediction of SNOs between FY3D and AQUA Satellite Orbit:

Table of predicted SNOs for the next 14.0 days since TLE Epoch: 1/23/2021
Index Date (FY3D) Time (FY3D) Lat,Lon (FY3D) SZA (FY3D ) Date (AQUA) Time (AQUA) Lat,Lon (AQUA) SZA (AQUA ) Distance(km) Time Diff (sec)
1 01/24/2021 07:05:58 -48.54, 107.03 38.21 01/24/2021 07:06:42 -48.61, 106.57 38.12 34.93 44
2 01/24/2021 07:57:23 46.05, -86.67 143.79 01/24/2021 07:56:48 46.07, -86.76 143.90 7.67 35
3 01/26/2021 23:22:08 -49.16,-136.77 39.22 01/26/2021 23:23:02 -49.23,-137.30 39.11 39.42 54
4 01/27/2021 00:13:44 46.04, 29.26 143.32 01/27/2021 00:13:19 46.03, 29.10 143.47 12.05 25
5 01/27/2021 00:45:33 -64.93, -7.02 96.75 01/27/2021 00:44:20 -65.20, -5.32 96.46 85.12 73
6 01/29/2021 15:38:20 -49.67, -20.62 40.20 01/29/2021 15:39:23 -49.78, -21.20 40.11 43.46 63
7 01/29/2021 16:30:05 46.02, 145.18 142.81 01/29/2021 16:29:49 46.05, 144.98 142.93 15.52 16
8 01/29/2021 17:08:18 -81.21, 43.37 76.46 01/29/2021 17:07:05 -81.78, 43.65 76.18 63.28 73
9 02/01/2021 07:54:31 -50.17, 95.54 41.23 02/01/2021 07:55:43 -50.32, 94.91 41.17 47.61 72
10 02/01/2021 08:46:25 46.01, -98.90 142.24 02/01/2021 08:46:18 46.06, -99.14 142.35 19.45 7
11 02/01/2021 09:30:46 -67.75, 82.91 57.34 02/01/2021 09:29:32 -67.90, 82.20 57.14 34.24 74
12 02/04/2021 01:02:43 46.16, 17.10 141.49 02/04/2021 01:02:45 46.25, 16.81 141.58 23.77 2



Historial Predications of SNOs between FY3D and AQUA
